COSMOS 1275 DEB, 12674

Orbit data source: Space-Track

COSMOS 1275 DEB, 12674 is space debris in LEO originally from a launch on Thu, 04 Jun 1981 UTC launched from the Plesetsk Missile And Space Complex (PKMTR). Debris objects in space refer to the collection of defunct objects orbiting the Earth. Examples of debris include non-operational satellites, rocket bodies, and fragments generated from explosions, collisions, or faulty payload assembly.

Loading next visibility...
Identifier
12674, 1981-053AE
Orbit
LEO
Country
Flag of CISCIS
Related business
Manufacturer
Unknown
Mission
Spacecraft
Bus & Motor
Unknown
Mass
Unknown
Launch date (UTC)
1981-06-04 (45 years ago)
Launch vehicle
Unknown
Launch site
Plesetsk Missile And Space Complex (PKMTR)
Object type
Payload
Rocket body
Debris
Shape & HBR
Unknown shape, 0.2 m
Radar Cross Section
Medium (>0.1 m² and <1 m²)

Expand to show TLE details & history
Last TLE update: 12 hours ago

TLE from 12 hours ago
0 COSMOS 1275 DEB
1 12674U 81053AE  26263.10254104  .00000414  00000-0  39999-3 0  9994
2 12674  82.9335 295.9112 0101571  78.5146 310.0891 13.75216391252871
Epoch: 2026-09-20T02:27Z
TLE epoch observation values (Epoch: 2026-09-20T02:27:39.545Z)
Latitude
27.51744°
Longitude
-96.32183°
Altitude
936.572 km
Speed
7.41 km/s
True Right ascension
19h 58m 22s
True Declination
27° 22' 49"
Sunlit
Object was in daylight at epoch
Visualization orbit readout
Latitude
Unknown
Longitude
Unknown
Altitude
Unknown
Speed
Unknown
Apparent Right ascension
Unknown
Apparent Declination
Unknown
Sunlit
N/A
Visualization observer readout
Local Sidereal Time
07:49:10
Azimuth
Unknown
Elevation
Unknown
Doppler factor
Unknown
Orbital elements
Apogee altitude
1,052.769 km
Perigee altitude
903.334 km
Semi-major axis
7,356.188 km
Eccentricity
0.01016
Inclination
82.9335°
RAAN
295.9112°
Arg. of periapsis
78.5146°
True anomaly
309.19135°
Mean anomaly
310.0891°
Eccentric anomaly
309.64096°
Mean motion
3.44004 °/min
Orbital period
104.65 mins
BSTAR
0.00039999
Loading maneuver chart data...
Computing Atmospheric mass density...

Documentation

Showing up to 5 results
|